This is the latest recevied weather packets stored in our database for station/object KQ4WWD. If no packets are shown the sender has not sent any weather packets the latest 10 day(s).
| Time | Temp. | Humidity | Pressure | Rain* | Wind** | Luminosity | Snow |
|---|---|---|---|---|---|---|---|
| 1788118176 | 33.89° C | 64% | 1015.5 hPa | 0 mm | - | 718 W/m² | - |
| 1788117872 | 33.89° C | 63% | 1015.9 hPa | 0 mm | - | 150 W/m² | - |
| 1788117567 | 33.89° C | 64% | 1015.7 hPa | 0 mm | - | 144 W/m² | - |
| 1788117266 | 33.89° C | 63% | 1015.7 hPa | 0 mm | - | 157 W/m² | - |
| 1788116962 | 35.56° C | 59% | 1015.9 hPa | 0 mm | - | 193 W/m² | - |
| 1788116657 | 35° C | 60% | 1015.9 hPa | 0 mm | - | 756 W/m² | - |
| 1788116356 | 34.44° C | 61% | 1016 hPa | 0 mm | - | 747 W/m² | - |
| 1788116052 | 34.44° C | 62% | 1016 hPa | 0 mm | - | 754 W/m² | - |
| 1788115747 | 35° C | 61% | 1016.3 hPa | 0 mm | - | 800 W/m² | - |
| 1788115446 | 35° C | 62% | 1016.4 hPa | 0 mm | - | 795 W/m² | - |
| 1788115145 | 34.44° C | 62% | 1016.4 hPa | 0 mm | - | 764 W/m² | - |
| 1788114840 | 34.44° C | 63% | 1016.4 hPa | 0 mm | - | 397 W/m² | - |
| 1788114536 | 34.44° C | 65% | 1016.5 hPa | 0 mm | - | 163 W/m² | - |
| 1788114231 | 33.89° C | 61% | 1016.4 hPa | 0 mm | - | 735 W/m² | - |
| 1788113928 | 34.44° C | 63% | 1016.3 hPa | 0 mm | - | 744 W/m² | - |
| 1788113623 | 33.89° C | 64% | 1016.5 hPa | 0 mm | - | 744 W/m² | - |
| 1788113323 | 34.44° C | 63% | 1016.9 hPa | 0 mm | - | 757 W/m² | - |
| 1788113017 | 34.44° C | 64% | 1016.7 hPa | 0 mm | - | 777 W/m² | - |
| 1788112716 | 33.89° C | 64% | 1016.6 hPa | 0 mm | - | 294 W/m² | - |
| 1788112411 | 33.33° C | 64% | 1017 hPa | 0 mm | - | 842 W/m² | - |
| 1788112106 | 32.78° C | 67% | 1017.1 hPa | 0 mm | - | 180 W/m² | - |
| 1788111801 | 32.78° C | 67% | 1017.2 hPa | 0 mm | - | 814 W/m² | - |
| 1788111501 | 33.33° C | 67% | 1017.1 hPa | 0 mm | - | 146 W/m² | - |
| 1788111197 | 33.33° C | 66% | 1017.2 hPa | 0 mm | - | 699 W/m² | - |
| 1788110893 | 33.33° C | 66% | 1017.2 hPa | 0 mm | - | 721 W/m² | - |
* Rain latest hour (hover to see other rain measurements)
** Current wind speed in m/s (hover to see current wind gust speed)